Regional Weather Roundup
Issued by NWS

Home | Current Version | Previous Version | Text Only | Print | Product List | Glossary Off
Versions: 1 2 3 4 5 6 7 8 9 10 11 12 13 14 15 16 17 18 19 20 21 22 23 24 25 26 27 28 29 30 31 32 33 34 35 36 37 38 39 40 41 42 43 44 45 46 47 48 49 50

000
ASUS43 KBIS 010102
RWRND

NORTH DAKOTA REGIONAL WEATHER ROUNDUP
NATIONAL WEATHER SERVICE BISMARCK ND
800 PM CDT SAT APR 30 2016

NOTE: "FAIR" INDICATES FEW OR NO CLOUDS BELOW 12,000 FEET WITH NO
SIGNIFICANT WEATHER AND/OR OBSTRUCTIONS TO VISIBILITY.


NDZ001>003-009>011-017-010200-
NORTHWEST NORTH DAKOTA

CITY           SKY/WX    TMP DP  RH WIND       PRES   REMARKS
WILLISTON      CLEAR     61  29  29 E10       30.26R
MINOT          CLEAR     63  24  22 NE12      30.24S
MINOT AFB      CLEAR     60  26  27 E10       30.24R
$$

NDZ018>021-031>035-040>046-010200-
SOUTHWEST NORTH DAKOTA

CITY           SKY/WX    TMP DP  RH WIND       PRES   REMARKS
BISMARCK       CLOUDY    57  28  33 NE12      30.21R
DICKINSON      PTCLDY    53  26  35 NE10      30.22R
GARRISON         N/A     58  26  29 E15       30.24R
HETTINGER ARPT PTCLDY    53  25  33 NE17      30.21R
$$

NDZ004>008-012>016-024-026-027-054-010200-
NORTHEAST NORTH DAKOTA

CITY           SKY/WX    TMP DP  RH WIND       PRES   REMARKS
GRAND FORKS    PTCLDY    56  27  32 NE15      30.22S
GRND FRKS AFB  CLEAR     56  26  32 E15G21    30.23R
DEVILS LAKE    CLEAR     57  29  34 NE15G21   30.24R
$$

NDZ022-023-025-028>030-036>039-047>053-010200-
SOUTHEAST NORTH DAKOTA

CITY           SKY/WX    TMP DP  RH WIND       PRES   REMARKS
FARGO          CLOUDY    58  26  29 NE15G25   30.16R
JAMESTOWN      CLOUDY    56  26  31 NE18      30.18S
$$





USA.gov is the U.S. government's official web portal to all federal, state and local government web resources and services.